SCP
0 0 0 0 0 0 0 0 0 0 0 0 0 0 0 0 0 0 0 0 0 0 0 0 0 0 0 0 0 0 0 0 0 0 0 0 0 0 0 0 0 0 0
0 0 0 0 0 0 0 0 0 0 0 0 0 0 0 0 0 0 0 0 0 0 0 0 0 0 0 0 0 0 0 0 0 0 0 0 0 0 0 0 0 0 0
0 0 0 0 0 0 0 0 0 0 0 0 0 0 0 0 0 0 0 0 0 0 0 0 0 0 0 0 0 0 0 0 0 0 0 0 0 0 0 0 0 0 0
0 0 0 0 0 0 0 0 0 0 0 0 0 0 0 0 0 0 0 0 0 0 0 0 0 0 0 0 0 0 0 0 0 0 0 0 0 0 0 0 0 0 0
0 0 0 0 0 0 0 0 0 0 0 0 0 0 0 0 0 0 0 0 0 0 0 0 0 0 0 0 0 0 0 0 0 0 0 0 0 0 0 0 0 0 0
0 0 0 0 0 0 0 0 0 0 0 0 0 0 0 0 0 0 0 0 0 0 0 0 0 0 0 0 0 0 0 0 0 0 0 0 0 0 0 0 0 0 0
0 0 0 0 0 0 0 0 0 0 0 0 0 0 0 0 0 0 0 0 0 0 0 0 0 0 0 0 0 0 0 0 0 0 0 0 0 0 0 0 0 0 0
0 0 0 0 0 0 0 0 0 0 0 0 0 0 0 0 0 0 0 0 0 0 0 0 0 0 0 0 0 0 0 0 0 0 0 0 0 0 0 0 0 0 0
0 0 0 0 0 0 0 0 0 0 0 0 0 0 0 0 0 0 0 0 0 0 0 0 0 0 0 0 0 0 0 0 0 0 0 0 0 0 0 0 0 0 0
0 0 0 0 0 0 0 0 0 0 0 0 0 0 0 0 0 0 0 0 0 0 0 0 0 0 0 0 0 0 0 0 0 0 0 0 0 0 0 0 0 0 0
0 0 0 0 0 0 0 0 0 0 0 0 0 0 0 0 0 0 0 0 0 0 0 0 0 0 0 0 0 0 0 0 0 0 0 0 0 0 0 0 0 0 0
0 0 0 0 0 0 0 0 0 0 0 0 0 0 0 0 0 0 0 0 0 0 0 0 0 0 0 0 0 0 0 0 0 0 0 0 0 0 0 0 0 0 0
0 0 0 0 0 0 0 0 0 0 0 0 0 0 0 0 0 0 0 0 0 0 0 0 0 0 0 0 0 0 0 0 0 0 0 0 0 0 0 0 0 0 0
0 0 0 0 0 0 0 0 0 0 0 0 0 0 0 0 0 0 0 0 0 0 0 0 0 0 0 0 0 0 0 0 0 0 0 0 0 0 0 0 0 0 0
0 0 0 0 0 0 0 0 0 0 0 0 0 0 0 0 0 0 0 0 0 0 0 0 0 0 0 0 0 0 0 0 0 0 0 0 0 0 0 0 0 0 0
0 0 0 0 0 0 0 0 0 0 0 0 0 0 0 0 0 0 0 0 0 0 0 0 0 0 0 0 0 0 0 0 0 0 0 0 0 0 0 0 0 0 0
0 0 0 0 0 0 0 0 0 0 0 0 0 0 0 0 0 0 0 0 0 0 0 0 0 0 0 0 0 0 0 0 0 0 0 0 0 0 0 0 0 0 0
0 0 0 0 0 0 0 0 0 0 0 0 0 0 0 0 0 0 0 0 0 0 0 0 0 0 0 0 0 0 0 0 0 0 0 0 0 0 0 0 0 0 0
0 0 0 0 0 0 0 0 0 0 0 0 0 0 0 0 0 0 0 0 0 0 0 0 0 0 0 0 0 0 0 0 0 0 0 0 0 0 0 0 0 0 0
0 0 0 0 0 0 0 0 0 0 0 0 0 0 0 0 0 0 0 0 0 0 0 0 0 0 0 0 0 0 0 0 0 0 0 0 0 0 0 0 0 0 0
0 0 0 0 0 0 0 0 0 0 0 0 0 0 0 0 0 0 0 0 0 0 0 0 0 0 0 0 0 0 0 0 0 0 0 0 0 0 0 0 0 0 0
0 0 0 0 0 0 0 0 0 0 0 0 0 0 0 0 0 0 0 0 0 0 0 0 0 0 0 0 0 0 0 0 0 0 0 0 0 0 0 0 0 0 0
0 0 0 0 0 0 0 0 0 0 0 0 0 0 0 0 0 0 0 0 0 0 0 0 0 0 0 0 0 0 0 0 0 0 0 0 0 0 0 0 0 0 0
0 0 0 0 0 0 0 0 0 0 0 0 0 0 0 0 0 0 0 0 0 0 0 0 0 0 0 0 0 0 0 0 0 0 0 0 0 0 0 0 0 0 0
0 0 0 0 0 0 0 0 0 0 0 0 0 0 0 0 0 0 0 0 0 0 0 0 0 -0 0 0 0 -0 0 -0 -0 0 0 0 0 0 0 0 0 0 0
0 0 0 0 0 0 0 0 0 0 0 0 0 0 0 0 0 0 0 0 0 0 0 0 0 -0 0 0 0 0 -0 -0 0 0 0 0 0 0 0 0 0 0 0
Wind_Speed_500mb
62 59 56 53 37 31 26 27 23 23 18 14 12 9 8 7 6 6 9 10 13 15 20 26 30 36 41 46 50 52 53 54 67 76 71 71 75 75 68 63 59 57 56
61 57 51 42 37 35 30 24 23 18 17 13 10 11 9 7 6 8 11 13 16 21 26 31 38 45 50 52 53 52 51 50 57 72 74 72 70 69 66 61 54 46 45
59 54 51 43 37 29 30 24 21 17 15 13 12 10 7 7 8 10 13 16 21 27 34 42 48 52 52 50 49 50 50 47 47 57 68 64 64 61 61 57 53 50 44
57 44 46 42 39 37 27 23 22 19 15 14 13 11 8 9 9 12 17 21 27 35 42 46 47 45 45 46 44 41 44 49 49 52 56 63 64 64 60 61 65 56 56
56 54 47 42 35 29 26 26 23 20 17 16 12 9 8 9 12 18 24 30 36 39 42 41 41 43 42 40 40 43 45 47 48 53 59 63 66 67 63 62 65 63 59
46 43 39 34 33 31 30 27 23 21 19 13 9 7 9 15 20 27 29 33 36 39 40 41 42 42 43 46 46 42 35 43 48 56 63 65 63 61 57 62 69 71 58
41 37 37 37 36 34 31 27 22 18 14 11 8 9 14 20 23 28 30 33 35 37 39 41 42 40 40 41 35 36 40 43 46 52 56 51 58 54 52 61 51 48 48
41 41 40 38 35 33 29 24 20 16 12 9 10 13 16 19 22 28 31 32 34 37 39 39 37 37 41 36 41 45 43 51 55 48 49 53 46 45 49 49 48 48 44
40 40 39 34 34 31 26 22 18 13 10 10 10 13 15 20 24 24 32 35 37 38 38 37 37 40 34 37 47 55 56 54 44 39 38 47 61 50 43 44 47 42 44
41 40 36 33 28 27 24 20 14 9 7 7 10 15 19 19 21 28 33 38 39 39 37 39 36 32 33 40 44 48 50 46 53 58 56 42 35 35 34 36 35 38 42
38 37 37 33 29 25 19 13 8 5 5 8 11 15 20 24 26 30 31 31 32 32 38 38 37 37 40 38 37 38 35 42 48 44 41 39 37 34 32 32 32 37 43
40 40 36 31 25 19 12 8 5 4 6 8 12 17 23 26 28 28 25 23 23 31 36 38 38 40 37 41 36 29 33 38 38 38 40 42 41 39 34 30 30 32 33
37 35 32 27 19 13 9 5 5 5 7 13 18 22 24 25 24 23 26 26 31 31 35 35 45 46 43 35 31 33 32 33 34 38 41 40 38 36 33 31 29 29 31
37 33 27 19 15 11 8 6 4 8 14 18 20 21 25 26 24 28 35 34 34 36 39 43 44 38 33 30 28 26 28 30 32 34 36 37 39 39 35 31 32 34 35
32 28 23 17 12 9 6 4 9 14 16 19 21 25 30 30 24 22 29 34 34 33 41 40 37 33 30 28 27 27 25 26 31 33 38 40 38 37 35 30 30 33 33
31 25 18 13 11 8 7 10 13 16 19 22 25 28 26 24 25 28 30 30 37 28 33 35 32 30 30 30 30 29 27 28 29 33 35 37 39 38 37 33 29 27 29
23 19 15 12 9 10 11 10 11 14 17 23 26 29 27 24 26 24 25 31 30 28 29 29 28 27 27 27 27 27 28 28 29 32 36 37 36 35 34 32 29 27 26
23 18 13 12 13 13 11 12 13 16 20 22 24 26 23 21 23 21 28 32 25 22 24 26 24 25 24 26 26 28 29 30 32 37 38 36 35 35 34 31 30 30 28
21 18 17 16 14 13 13 13 14 19 23 26 27 25 22 19 24 29 32 29 27 22 23 22 22 22 22 23 26 28 29 32 34 36 36 33 32 30 31 30 30 27 25
22 19 17 15 15 15 14 14 17 21 25 27 27 27 21 25 31 33 28 26 26 25 23 22 21 21 22 23 26 28 30 30 34 39 39 35 31 29 31 31 31 30 27
20 18 18 17 16 16 17 18 20 23 27 28 27 26 15 25 32 30 27 25 26 26 25 22 22 22 23 24 28 31 31 33 34 41 51 41 33 32 34 32 30 29 27
19 19 18 17 18 18 20 21 22 25 29 30 24 24 18 25 29 27 26 25 25 24 23 23 24 25 26 28 30 31 31 34 34 39 50 46 33 29 29 28 27 24 21
19 19 19 19 20 23 24 23 23 26 28 28 26 23 25 26 29 28 26 25 24 21 18 21 24 24 23 26 26 27 30 33 34 36 49 51 31 27 25 26 27 25 20
18 20 21 23 25 27 27 27 27 28 30 26 27 27 27 29 30 28 25 24 21 17 18 22 24 25 26 27 29 30 31 33 34 34 38 45 29 24 23 25 24 24 20
21 23 26 27 30 31 31 31 30 31 26 28 30 29 29 29 30 27 23 22 19 17 18 22 25 27 29 30 31 31 26 25 23 32 36 29 21 21 20 21 22 21 20
25 26 27 29 31 30 26 27 28 29 31 31 32 32 31 31 31 27 22 19 17 16 20 23 26 28 29 29 29 28 25 18 20 28 27 23 20 17 17 20 21 21 21
Wind_Direction_500mb
186 191 190 201 207 202 196 205 212 204 206 204 194 206 207 212 230 246 257 267 280 291 290 294 299 301 303 303 302 300 299 298 297 301 305 308 309 312 313 312 311 307 301
184 189 191 189 192 198 199 190 200 200 196 184 185 197 203 213 229 250 265 286 299 296 296 299 302 304 303 302 301 300 300 300 298 300 305 309 312 314 315 315 317 315 307
179 185 188 189 190 192 185 177 185 185 181 175 187 191 200 223 246 269 289 298 296 296 302 305 306 304 304 304 305 305 305 305 306 305 307 312 315 321 322 320 320 317 317
174 181 186 180 176 182 169 172 174 170 176 178 183 192 210 235 269 287 292 296 297 302 304 305 305 307 309 308 309 311 308 309 310 309 310 313 318 324 322 320 319 320 317
167 174 174 168 166 173 165 168 168 167 171 178 188 197 224 260 279 292 299 304 305 306 308 309 311 311 308 308 307 308 311 312 311 310 308 313 318 323 322 320 314 312 315
170 164 163 165 164 165 160 163 167 172 179 181 188 216 259 285 297 303 310 311 311 314 316 315 313 311 310 308 307 307 308 308 306 311 311 309 312 315 317 318 315 304 312
162 160 164 165 161 161 163 167 171 173 174 183 210 258 288 299 305 310 313 316 322 321 320 321 316 313 314 314 315 313 310 304 303 305 308 313 313 313 316 317 319 318 308
157 158 163 163 162 164 164 167 171 171 182 219 261 287 300 308 310 311 320 325 323 324 322 320 318 320 326 330 326 316 314 315 320 316 308 305 311 314 310 307 306 309 309
160 161 164 164 168 165 165 168 169 185 218 260 291 305 308 312 319 325 320 320 321 323 326 328 326 324 334 329 318 317 317 322 323 316 305 302 304 308 302 304 307 313 313
162 162 158 160 168 167 169 171 184 213 251 292 309 309 314 324 321 317 316 319 325 324 323 325 329 332 333 322 323 319 322 331 320 317 318 320 320 313 305 300 306 304 309
155 154 158 162 167 170 175 183 201 238 288 304 306 317 321 317 315 315 316 317 325 320 317 328 336 339 328 323 320 325 334 315 314 322 324 325 322 319 315 313 306 302 302
157 159 162 165 170 175 186 200 219 258 283 300 313 316 319 320 319 317 311 321 319 322 329 336 334 328 318 326 328 325 320 319 323 326 331 339 338 337 335 330 322 312 302
161 163 167 169 174 183 195 203 226 265 298 311 318 321 323 325 326 322 324 332 331 331 333 326 323 325 327 326 324 325 326 330 334 337 338 337 338 336 333 326 322 316 309
167 168 171 179 185 183 190 211 264 304 312 316 319 323 327 330 331 331 332 333 341 339 326 323 325 328 327 323 325 334 338 339 342 338 337 340 340 343 345 342 337 334 334
175 178 182 184 185 192 202 257 296 305 311 318 323 327 328 324 334 321 324 334 333 327 310 322 329 331 334 337 344 349 348 349 351 350 350 347 346 345 346 344 342 340 340
184 185 185 190 195 209 249 281 297 311 321 323 321 323 323 313 310 319 322 325 318 321 322 329 336 340 345 349 351 354 1 0 359 355 353 350 348 348 347 350 344 343 344
191 193 199 204 219 246 263 276 291 303 312 317 318 322 323 317 318 323 321 316 325 320 324 335 340 345 349 351 353 355 356 357 351 349 347 346 343 346 346 346 349 350 349
197 204 214 226 240 252 266 281 294 306 317 321 324 323 322 318 320 319 322 326 319 319 332 339 341 344 347 350 351 349 347 347 345 346 343 341 342 341 344 345 345 343 344
207 218 226 235 246 259 269 280 297 313 318 320 320 321 319 314 324 324 322 321 325 329 332 336 336 338 341 343 343 345 346 347 347 342 344 343 345 346 344 342 341 343 340
213 224 233 246 255 262 271 283 298 311 322 323 323 318 317 321 322 322 321 321 325 328 329 326 328 330 330 334 337 339 341 342 343 346 347 348 344 343 340 341 341 339 336
224 233 243 252 259 266 271 282 298 312 323 323 317 317 315 303 309 319 320 323 324 324 325 321 321 320 320 321 327 330 332 336 337 339 347 340 336 332 333 333 330 329 332
236 245 255 258 263 267 272 281 297 311 321 319 306 307 302 298 314 317 316 319 320 320 321 319 319 318 316 317 320 324 325 331 336 331 335 339 334 336 339 340 340 342 340
246 256 261 264 267 269 273 280 291 304 316 314 314 300 302 306 314 315 313 314 317 318 318 318 319 320 317 317 315 316 317 323 329 330 330 338 336 345 349 349 348 349 349
258 266 269 267 266 271 273 273 284 298 305 309 312 309 303 306 313 312 308 309 312 310 311 315 317 318 321 322 320 316 310 317 330 329 326 329 334 349 341 344 347 351 357
268 268 266 267 269 274 271 267 278 290 296 307 314 309 304 304 309 307 302 304 308 305 308 312 314 317 319 319 318 318 319 325 328 331 335 344 345 347 351 356 0 1 1
268 268 269 272 277 289 280 277 280 286 293 301 308 307 303 303 306 301 295 296 300 302 311 316 318 317 320 321 320 320 324 324 336 330 337 347 351 351 351 354 356 357 359
Wind_Speed_850mb
62 59 56 53 37 31 26 27 23 23 18 14 12 9 8 7 6 6 9 10 13 15 20 26 30 36 41 46 50 52 53 54 67 76 71 71 75 75 68 63 59 57 56
61 57 51 42 37 35 30 24 23 18 17 13 10 11 9 7 6 8 11 13 16 21 26 31 38 45 50 52 53 52 51 50 57 72 74 72 70 69 66 61 54 46 45
59 54 51 43 37 29 30 24 21 17 15 13 12 10 7 7 8 10 13 16 21 27 34 42 48 52 52 50 49 50 50 47 47 57 68 64 64 61 61 57 53 50 44
57 44 46 42 39 37 27 23 22 19 15 14 13 11 8 9 9 12 17 21 27 35 42 46 47 45 45 46 44 41 44 49 49 52 56 63 64 64 60 61 65 56 56
56 54 47 42 35 29 26 26 23 20 17 16 12 9 8 9 12 18 24 30 36 39 42 41 41 43 42 40 40 43 45 47 48 53 59 63 66 67 63 62 65 63 59
46 43 39 34 33 31 30 27 23 21 19 13 9 7 9 15 20 27 29 33 36 39 40 41 42 42 43 46 46 42 35 43 48 56 63 65 63 61 57 62 69 71 58
41 37 37 37 36 34 31 27 22 18 14 11 8 9 14 20 23 28 30 33 35 37 39 41 42 40 40 41 35 36 40 43 46 52 56 51 58 54 52 61 51 48 48
41 41 40 38 35 33 29 24 20 16 12 9 10 13 16 19 22 28 31 32 34 37 39 39 37 37 41 36 41 45 43 51 55 48 49 53 46 45 49 49 48 48 44
40 40 39 34 34 31 26 22 18 13 10 10 10 13 15 20 24 24 32 35 37 38 38 37 37 40 34 37 47 55 56 54 44 39 38 47 61 50 43 44 47 42 44
41 40 36 33 28 27 24 20 14 9 7 7 10 15 19 19 21 28 33 38 39 39 37 39 36 32 33 40 44 48 50 46 53 58 56 42 35 35 34 36 35 38 42
38 37 37 33 29 25 19 13 8 5 5 8 11 15 20 24 26 30 31 31 32 32 38 38 37 37 40 38 37 38 35 42 48 44 41 39 37 34 32 32 32 37 43
40 40 36 31 25 19 12 8 5 4 6 8 12 17 23 26 28 28 25 23 23 31 36 38 38 40 37 41 36 29 33 38 38 38 40 42 41 39 34 30 30 32 33
37 35 32 27 19 13 9 5 5 5 7 13 18 22 24 25 24 23 26 26 31 31 35 35 45 46 43 35 31 33 32 33 34 38 41 40 38 36 33 31 29 29 31
37 33 27 19 15 11 8 6 4 8 14 18 20 21 25 26 24 28 35 34 34 36 39 43 44 38 33 30 28 26 28 30 32 34 36 37 39 39 35 31 32 34 35
32 28 23 17 12 9 6 4 9 14 16 19 21 25 30 30 24 22 29 34 34 33 41 40 37 33 30 28 27 27 25 26 31 33 38 40 38 37 35 30 30 33 33
31 25 18 13 11 8 7 10 13 16 19 22 25 28 26 24 25 28 30 30 37 28 33 35 32 30 30 30 30 29 27 28 29 33 35 37 39 38 37 33 29 27 29
23 19 15 12 9 10 11 10 11 14 17 23 26 29 27 24 26 24 25 31 30 28 29 29 28 27 27 27 27 27 28 28 29 32 36 37 36 35 34 32 29 27 26
23 18 13 12 13 13 11 12 13 16 20 22 24 26 23 21 23 21 28 32 25 22 24 26 24 25 24 26 26 28 29 30 32 37 38 36 35 35 34 31 30 30 28
21 18 17 16 14 13 13 13 14 19 23 26 27 25 22 19 24 29 32 29 27 22 23 22 22 22 22 23 26 28 29 32 34 36 36 33 32 30 31 30 30 27 25
22 19 17 15 15 15 14 14 17 21 25 27 27 27 21 25 31 33 28 26 26 25 23 22 21 21 22 23 26 28 30 30 34 39 39 35 31 29 31 31 31 30 27
20 18 18 17 16 16 17 18 20 23 27 28 27 26 15 25 32 30 27 25 26 26 25 22 22 22 23 24 28 31 31 33 34 41 51 41 33 32 34 32 30 29 27
19 19 18 17 18 18 20 21 22 25 29 30 24 24 18 25 29 27 26 25 25 24 23 23 24 25 26 28 30 31 31 34 34 39 50 46 33 29 29 28 27 24 21
19 19 19 19 20 23 24 23 23 26 28 28 26 23 25 26 29 28 26 25 24 21 18 21 24 24 23 26 26 27 30 33 34 36 49 51 31 27 25 26 27 25 20
18 20 21 23 25 27 27 27 27 28 30 26 27 27 27 29 30 28 25 24 21 17 18 22 24 25 26 27 29 30 31 33 34 34 38 45 29 24 23 25 24 24 20
21 23 26 27 30 31 31 31 30 31 26 28 30 29 29 29 30 27 23 22 19 17 18 22 25 27 29 30 31 31 26 25 23 32 36 29 21 21 20 21 22 21 20
25 26 27 29 31 30 26 27 28 29 31 31 32 32 31 31 31 27 22 19 17 16 20 23 26 28 29 29 29 28 25 18 20 28 27 23 20 17 17 20 21 21 21
Wind_Direction_850mb
186 191 190 201 207 202 196 205 212 204 206 204 194 206 207 212 230 246 257 267 280 291 290 294 299 301 303 303 302 300 299 298 297 301 305 308 309 312 313 312 311 307 301
184 189 191 189 192 198 199 190 200 200 196 184 185 197 203 213 229 250 265 286 299 296 296 299 302 304 303 302 301 300 300 300 298 300 305 309 312 314 315 315 317 315 307
179 185 188 189 190 192 185 177 185 185 181 175 187 191 200 223 246 269 289 298 296 296 302 305 306 304 304 304 305 305 305 305 306 305 307 312 315 321 322 320 320 317 317
174 181 186 180 176 182 169 172 174 170 176 178 183 192 210 235 269 287 292 296 297 302 304 305 305 307 309 308 309 311 308 309 310 309 310 313 318 324 322 320 319 320 317
167 174 174 168 166 173 165 168 168 167 171 178 188 197 224 260 279 292 299 304 305 306 308 309 311 311 308 308 307 308 311 312 311 310 308 313 318 323 322 320 314 312 315
170 164 163 165 164 165 160 163 167 172 179 181 188 216 259 285 297 303 310 311 311 314 316 315 313 311 310 308 307 307 308 308 306 311 311 309 312 315 317 318 315 304 312
162 160 164 165 161 161 163 167 171 173 174 183 210 258 288 299 305 310 313 316 322 321 320 321 316 313 314 314 315 313 310 304 303 305 308 313 313 313 316 317 319 318 308
157 158 163 163 162 164 164 167 171 171 182 219 261 287 300 308 310 311 320 325 323 324 322 320 318 320 326 330 326 316 314 315 320 316 308 305 311 314 310 307 306 309 309
160 161 164 164 168 165 165 168 169 185 218 260 291 305 308 312 319 325 320 320 321 323 326 328 326 324 334 329 318 317 317 322 323 316 305 302 304 308 302 304 307 313 313
162 162 158 160 168 167 169 171 184 213 251 292 309 309 314 324 321 317 316 319 325 324 323 325 329 332 333 322 323 319 322 331 320 317 318 320 320 313 305 300 306 304 309
155 154 158 162 167 170 175 183 201 238 288 304 306 317 321 317 315 315 316 317 325 320 317 328 336 339 328 323 320 325 334 315 314 322 324 325 322 319 315 313 306 302 302
157 159 162 165 170 175 186 200 219 258 283 300 313 316 319 320 319 317 311 321 319 322 329 336 334 328 318 326 328 325 320 319 323 326 331 339 338 337 335 330 322 312 302
161 163 167 169 174 183 195 203 226 265 298 311 318 321 323 325 326 322 324 332 331 331 333 326 323 325 327 326 324 325 326 330 334 337 338 337 338 336 333 326 322 316 309
167 168 171 179 185 183 190 211 264 304 312 316 319 323 327 330 331 331 332 333 341 339 326 323 325 328 327 323 325 334 338 339 342 338 337 340 340 343 345 342 337 334 334
175 178 182 184 185 192 202 257 296 305 311 318 323 327 328 324 334 321 324 334 333 327 310 322 329 331 334 337 344 349 348 349 351 350 350 347 346 345 346 344 342 340 340
184 185 185 190 195 209 249 281 297 311 321 323 321 323 323 313 310 319 322 325 318 321 322 329 336 340 345 349 351 354 1 0 359 355 353 350 348 348 347 350 344 343 344
191 193 199 204 219 246 263 276 291 303 312 317 318 322 323 317 318 323 321 316 325 320 324 335 340 345 349 351 353 355 356 357 351 349 347 346 343 346 346 346 349 350 349
197 204 214 226 240 252 266 281 294 306 317 321 324 323 322 318 320 319 322 326 319 319 332 339 341 344 347 350 351 349 347 347 345 346 343 341 342 341 344 345 345 343 344
207 218 226 235 246 259 269 280 297 313 318 320 320 321 319 314 324 324 322 321 325 329 332 336 336 338 341 343 343 345 346 347 347 342 344 343 345 346 344 342 341 343 340
213 224 233 246 255 262 271 283 298 311 322 323 323 318 317 321 322 322 321 321 325 328 329 326 328 330 330 334 337 339 341 342 343 346 347 348 344 343 340 341 341 339 336
224 233 243 252 259 266 271 282 298 312 323 323 317 317 315 303 309 319 320 323 324 324 325 321 321 320 320 321 327 330 332 336 337 339 347 340 336 332 333 333 330 329 332
236 245 255 258 263 267 272 281 297 311 321 319 306 307 302 298 314 317 316 319 320 320 321 319 319 318 316 317 320 324 325 331 336 331 335 339 334 336 339 340 340 342 340
246 256 261 264 267 269 273 280 291 304 316 314 314 300 302 306 314 315 313 314 317 318 318 318 319 320 317 317 315 316 317 323 329 330 330 338 336 345 349 349 348 349 349
258 266 269 267 266 271 273 273 284 298 305 309 312 309 303 306 313 312 308 309 312 310 311 315 317 318 321 322 320 316 310 317 330 329 326 329 334 349 341 344 347 351 357
268 268 266 267 269 274 271 267 278 290 296 307 314 309 304 304 309 307 302 304 308 305 308 312 314 317 319 319 318 318 319 325 328 331 335 344 345 347 351 356 0 1 1
268 268 269 272 277 289 280 277 280 286 293 301 308 307 303 303 306 301 295 296 300 302 311 316 318 317 320 321 320 320 324 324 336 330 337 347 351 351 351 354 356 357 359